Litchfield, IL

10:58 AM CST on February 23, 2017 (GMT -0600)
Litchfield

Weather History for K3LF - May, 2014

Change the Weather History Date:

Sunday, May 25, 2014

  Actual Average (KALN) Record (KALN)
Temperature  
Mean Temperature 68 °F -  
Max Temperature 74 °F 74 °F 89 °F (2012)
Min Temperature 61 °F 58 °F 47 °F (2013)
Cooling Degree Days 2    
Growing Degree Days 18 (Base 50)    
Moisture  
Dew Point 59 °F    
Average Humidity 76    
Maximum Humidity 92    
Minimum Humidity 61    
Precipitation  
Precipitation 0.11 in - - ()
Sea Level Pressure  
Sea Level Pressure 30.09 in    
Wind  
Wind Speed 6 mph (ESE)    
Max Wind Speed 12 mph    
Max Gust Speed 17 mph    
Visibility 10 miles    
Events Rain    
Averages and records for this station are not official NWS values.
T = Trace of Precipitation, MM = Missing Value Source: NWS Daily Summary

Daily Weather History Graph

Daily Weather History Graph

Search for Another Location

Airport or City:

Trip Planner

Search our weather history database for the weather conditions in past years. The results will help you decide how hot, cold, wet, or windy it might be!

Date:

Astronomy

May. 25, 2014 Rise Set
Actual Time 5:37 AM CDT 8:13 PM CDT
Civil Twilight 5:06 AM CDT 8:44 PM CDT
Nautical Twilight 4:28 AM CDT 9:23 PM CDT
Astronomical Twilight 3:45 AM CDT 10:07 PM CDT
Moon 3:41 AM CDT (5/25) 5:15 PM CDT (5/25)
Length of Visible Light 15h 37m
Length of Day
14h 35m
Waning Crescent, 10% of the Moon is Illuminated
May 25
Waning Crescent
May 28
New
Jun 5
First Quarter
Jun 12
Full
Jun 19
Last Quarter

Hourly Weather History & Observations

Time (CDT) Temp. Dew Point Humidity Pressure Visibility Wind Dir Wind Speed Gust Speed Precip Events Conditions
12:15 AM 67.8 °F 53.8 °F 61% 30.11 in 10.0 mi ESE 4.6 mph - N/A   Mostly Cloudy
12:35 AM 67.6 °F 53.6 °F 61% 30.11 in 10.0 mi ESE 4.6 mph - N/A   Mostly Cloudy
12:55 AM 67.5 °F 53.8 °F 61% 30.10 in 10.0 mi ESE 4.6 mph - N/A   Overcast
1:15 AM 66.7 °F 54.0 °F 63% 30.10 in 10.0 mi ESE 4.6 mph - N/A   Mostly Cloudy
1:35 AM 66.9 °F 53.8 °F 63% 30.10 in 10.0 mi ESE 4.6 mph - N/A   Mostly Cloudy
1:55 AM 66.4 °F 54.5 °F 66% 30.10 in 10.0 mi East 4.6 mph - N/A   Overcast
2:15 AM 65.8 °F 55.0 °F 68% 30.10 in 10.0 mi East 4.6 mph - N/A   Overcast
2:35 AM 65.7 °F 55.2 °F 69% 30.10 in 10.0 mi ENE 5.8 mph - N/A Rain Light Rain
2:55 AM 65.3 °F 55.4 °F 70% 30.10 in 10.0 mi East 6.9 mph - N/A   Overcast
3:15 AM 65.3 °F 55.4 °F 70% 30.08 in 10.0 mi East 8.1 mph - N/A   Mostly Cloudy
3:35 AM 65.3 °F 55.0 °F 69% 30.08 in 10.0 mi East 8.1 mph - N/A   Overcast
3:55 AM 64.9 °F 55.0 °F 70% 30.09 in 10.0 mi SSE 6.9 mph - N/A   Mostly Cloudy
4:15 AM 64.6 °F 55.6 °F 73% 30.10 in 10.0 mi SSE 6.9 mph - N/A   Overcast
4:35 AM 64.4 °F 55.9 °F 74% 30.10 in 10.0 mi SE 4.6 mph - N/A   Overcast
4:55 AM 64.0 °F 55.8 °F 74% 30.10 in 10.0 mi SE 4.6 mph - N/A   Overcast
5:15 AM 64.0 °F 55.9 °F 75% 30.10 in 10.0 mi ESE 6.9 mph - N/A   Mostly Cloudy
5:35 AM 64.0 °F 55.8 °F 74% 30.10 in 10.0 mi SE 5.8 mph - N/A   Mostly Cloudy
5:55 AM 63.9 °F 55.8 °F 75% 30.10 in 10.0 mi East 6.9 mph - N/A   Mostly Cloudy
6:15 AM 64.0 °F 55.9 °F 75% 30.10 in 10.0 mi East 6.9 mph - N/A Rain Light Rain
6:35 AM 63.5 °F 56.5 °F 78% 30.11 in 10.0 mi East 6.9 mph - N/A   Overcast
6:55 AM 62.1 °F 57.7 °F 86% 30.12 in 2.5 mi East 6.9 mph - 0.07 in Rain Heavy Rain
7:15 AM 61.3 °F 58.1 °F 89% 30.13 in 10.0 mi NE 8.1 mph - 0.01 in Rain Light Rain
7:35 AM 61.7 °F 58.6 °F 90% 30.13 in 10.0 mi ENE 6.9 mph - 0.01 in   Overcast
7:55 AM 61.7 °F 58.6 °F 90% 30.14 in 10.0 mi NE 5.8 mph - 0.01 in Rain Light Rain
8:15 AM 61.3 °F 59.0 °F 92% 30.13 in 7.0 mi ENE 10.4 mph - 0.02 in Rain Light Rain
8:35 AM 61.9 °F 58.8 °F 90% 30.13 in 10.0 mi SE 8.1 mph - 0.02 in   Overcast
9:15 AM 62.6 °F 60.3 °F 92% 30.14 in 10.0 mi ESE 5.8 mph - N/A   Mostly Cloudy
9:55 AM 63.7 °F 60.3 °F 89% 30.14 in 10.0 mi East 4.6 mph - N/A   Mostly Cloudy
10:15 AM 64.4 °F 60.3 °F 86% 30.15 in 10.0 mi South 3.5 mph - N/A   Scattered Clouds
10:35 AM 65.5 °F 59.9 °F 82% 30.15 in 10.0 mi SW 6.9 mph - N/A   Mostly Cloudy
10:55 AM 63.3 °F 59.9 °F 89% 30.15 in 7.0 mi SSW 6.9 mph - N/A Rain Rain
11:15 AM 62.6 °F 59.9 °F 91% 30.15 in 7.0 mi South 4.6 mph - 0.01 in   Drizzle
11:55 AM 64.2 °F 61.5 °F 91% 30.14 in 10.0 mi ESE 4.6 mph - 0.01 in Rain Light Rain
12:15 PM 64.9 °F 61.0 °F 87% 30.14 in 10.0 mi SE 3.5 mph - N/A   Mostly Cloudy
12:35 PM 65.1 °F 61.5 °F 88% 30.14 in 10.0 mi ESE 4.6 mph - N/A   Light Drizzle
12:55 PM 65.7 °F 63.1 °F 92% 30.13 in 10.0 mi East 6.9 mph - N/A Rain Light Rain
1:15 PM 66.6 °F 63.9 °F 91% 30.12 in 10.0 mi East 8.1 mph - N/A   Light Drizzle
1:35 PM 66.7 °F 63.1 °F 88% 30.11 in 10.0 mi ESE 9.2 mph - N/A Rain Light Rain
1:55 PM 67.8 °F 63.5 °F 86% 30.10 in 10.0 mi East 11.5 mph - N/A   Light Drizzle
2:15 PM 68.4 °F 62.1 °F 80% 30.10 in 10.0 mi East 10.4 mph - N/A   Clear
2:35 PM 68.9 °F 60.8 °F 75% 30.10 in 10.0 mi SE 8.1 mph - N/A   Clear
2:55 PM 69.3 °F 61.0 °F 75% 30.09 in 10.0 mi SE 6.9 mph - N/A   Clear
3:15 PM 70.7 °F 61.7 °F 73% 30.08 in 10.0 mi ESE 10.4 mph - N/A   Clear
3:35 PM 72.0 °F 60.6 °F 67% 30.08 in 10.0 mi SE 10.4 mph - N/A   Scattered Clouds
3:55 PM 73.2 °F 60.1 °F 63% 30.07 in 10.0 mi SE 11.5 mph - N/A   Scattered Clouds
4:15 PM 74.1 °F 60.8 °F 63% 30.07 in 10.0 mi SE 11.5 mph - N/A   Scattered Clouds
4:35 PM 74.3 °F 60.4 °F 62% 30.06 in 10.0 mi SE 11.5 mph 17.3 mph N/A   Clear
4:55 PM 74.5 °F 60.4 °F 61% 30.06 in 10.0 mi SE 9.2 mph - N/A   Clear
5:15 PM 73.4 °F 59.4 °F 61% 30.05 in 10.0 mi SE 10.4 mph - N/A   Clear
5:35 PM 73.0 °F 60.3 °F 64% 30.05 in 10.0 mi SSE 9.2 mph - N/A   Clear
5:55 PM 73.6 °F 60.3 °F 63% 30.05 in 10.0 mi SSE 10.4 mph - N/A   Clear
6:15 PM 73.4 °F 60.6 °F 64% 30.04 in 10.0 mi SE 9.2 mph - N/A   Clear
6:35 PM 73.4 °F 60.8 °F 65% 30.03 in 10.0 mi SE 10.4 mph - N/A   Clear
6:55 PM 72.5 °F 61.3 °F 68% 30.03 in 10.0 mi SE 6.9 mph - N/A   Clear
7:15 PM 72.0 °F 61.2 °F 69% 30.03 in 10.0 mi SE 8.1 mph - N/A   Clear
7:35 PM 72.0 °F 61.7 °F 70% 30.04 in 10.0 mi SE 6.9 mph - N/A   Clear
7:55 PM 71.1 °F 61.7 °F 72% 30.04 in 10.0 mi ESE 5.8 mph - N/A   Clear
8:15 PM 69.4 °F 61.7 °F 76% 30.04 in 10.0 mi SE 5.8 mph - N/A   Clear
8:35 PM 69.3 °F 61.7 °F 77% 30.04 in 10.0 mi SE 5.8 mph - N/A   Clear
8:55 PM 68.4 °F 61.2 °F 78% 30.04 in 10.0 mi SE 6.9 mph - N/A   Clear
9:15 PM 68.0 °F 60.8 °F 78% 30.04 in 10.0 mi ESE 6.9 mph - N/A   Clear
9:35 PM 68.0 °F 60.3 °F 76% 30.05 in 10.0 mi ESE 5.8 mph - N/A   Clear
9:55 PM 67.5 °F 60.1 °F 77% 30.05 in 10.0 mi ESE 6.9 mph - N/A   Clear
10:15 PM 66.9 °F 59.9 °F 78% 30.06 in 10.0 mi ESE 6.9 mph - N/A   Clear
10:35 PM 67.1 °F 59.4 °F 76% 30.05 in 10.0 mi ESE 6.9 mph - N/A   Clear
10:55 PM 66.9 °F 59.2 °F 76% 30.05 in 10.0 mi SE 8.1 mph - N/A   Clear
11:15 PM 66.4 °F 59.0 °F 77% 30.05 in 10.0 mi SE 6.9 mph - N/A   Clear
11:35 PM 66.2 °F 58.6 °F 77% 30.05 in 10.0 mi ESE 8.1 mph - N/A   Clear
11:55 PM 66.2 °F 58.5 °F 76% 30.05 in 10.0 mi ESE 8.1 mph - N/A   Clear